Weather History for 03969 - October, 2011

Change the Weather History Date:

Sunday, October 9, 2011

  Actual Average Record
Temperature  
Mean Temperature 60 °F -  
Max Temperature 62 °F 55 °F - ()
Min Temperature 59 °F 44 °F - ()
Degree Days  
Heating Degree Days 4    
Growing Degree Days 10 (Base 50)    
Moisture  
Dew Point 58 °F    
Average Humidity 89    
Maximum Humidity 100    
Minimum Humidity 82    
Precipitation  
Precipitation 0.00 in 0.09 in - ()
Sea Level Pressure  
Sea Level Pressure 29.96 in    
Wind  
Wind Speed 22 mph ()    
Max Wind Speed 30 mph    
Max Gust Speed 39 mph    
Visibility 6.6 miles    
Events Rain    
T = Trace of Precipitation, MM = Missing Value Source: Averaged Metar Reports

Daily Weather History Graph

Daily Weather History Graph

Search for Another Location

Airport or City:

Trip Planner

Search our weather history database for the weather conditions in past years. The results will help you decide how hot, cold, wet, or windy it might be!

Date:

Astronomy

Oct. 09, 2011 Rise Set
Actual Time 7:40 AM IST 6:43 PM IST
Civil Twilight 7:05 AM IST 7:18 PM IST
Nautical Twilight 6:25 AM IST 7:58 PM IST
Astronomical Twilight 5:44 AM IST 8:39 PM IST
Moon 5:25 PM IST (10/9) 4:56 AM IST (10/9)
Length of Visible Light 12h 13m
Length of Day
11h 03m
Waxing Gibbous, 94% of the Moon is Illuminated
Oct 9
Waxing Gibbous
Oct 12
Full
Oct 20
Last Quarter
Oct 26
New
Nov 2
First Quarter

Hourly Weather History & Observations

Time (IST) Temp. Dew Point Humidity Pressure Visibility Wind Dir Wind Speed Gust Speed Precip Events Conditions
12:00 AM 60.8 °F 57.2 °F 88% 30.06 in 6.2 mi West 27.6 mph - N/A   Mostly Cloudy
12:30 AM 60.8 °F 59.0 °F 94% 30.06 in 5.6 mi West 23.0 mph - N/A Rain Light Rain
1:00 AM 60 °F 58 °F 92% 30.07 in 5 mi WSW 24.6 mph - - Rain Light Rain
1:00 AM 59.0 °F 59.0 °F 100% 30.06 in 5.0 mi WSW 23.0 mph 34.5 mph N/A Rain Light Rain
1:30 AM 59.0 °F 59.0 °F 100% 30.04 in 6.2 mi West 24.2 mph - N/A Rain Light Rain
2:00 AM 59.0 °F 57.2 °F 94% 30.04 in 6.2 mi West 24.2 mph 35.7 mph N/A Rain Light Rain
2:30 AM 59.0 °F 57.2 °F 94% 30.04 in 6.2 mi West 24.2 mph - N/A   Light Drizzle
3:00 AM 59.0 °F 57.2 °F 94% 30.04 in 6.2 mi WSW 21.9 mph - N/A   Light Drizzle
3:30 AM 59.0 °F 57.2 °F 94% 30.01 in 6.2 mi WSW 23.0 mph - N/A   Light Drizzle
4:00 AM 60.8 °F 57.2 °F 88% 30.01 in 6.2 mi WSW 20.7 mph 33.4 mph N/A   Mostly Cloudy
4:30 AM 60.8 °F 57.2 °F 88% 30.01 in 6.2 mi WSW 20.7 mph - N/A   Mostly Cloudy
5:00 AM 60.8 °F 57.2 °F 88% 29.98 in 6.2 mi WSW 17.3 mph - N/A   Mostly Cloudy
5:30 AM 60.8 °F 57.2 °F 88% 29.98 in 6.2 mi WSW 19.6 mph - N/A   Mostly Cloudy
6:00 AM 60.8 °F 57.2 °F 88% 29.98 in 6.2 mi WSW 21.9 mph - N/A   Light Drizzle
6:30 AM 60.8 °F 57.2 °F 88% 29.98 in 6.2 mi WSW 23.0 mph - N/A   Mostly Cloudy
7:00 AM 60 °F 57 °F 87% 29.97 in 9 mi WSW 22.4 mph - - Rain Light Drizzle
7:00 AM 60.8 °F 57.2 °F 88% 29.95 in 6.2 mi WSW 20.7 mph - N/A   Light Drizzle
7:30 AM 60.8 °F 57.2 °F 88% 29.95 in 6.2 mi WSW 23.0 mph - N/A   Light Drizzle
8:00 AM 60.8 °F 57.2 °F 88% 29.95 in 6.2 mi WSW 25.3 mph - N/A   Mostly Cloudy
8:30 AM 60.8 °F 57.2 °F 88% 29.95 in 6.2 mi WSW 21.9 mph - N/A   Mostly Cloudy
9:00 AM 60.8 °F 57.2 °F 88% 29.95 in 6.2 mi WSW 21.9 mph - N/A   Mostly Cloudy
9:30 AM 60.8 °F 57.2 °F 88% 29.95 in 6.2 mi WSW 19.6 mph 31.1 mph N/A   Light Drizzle
10:00 AM 60.8 °F 57.2 °F 88% 29.92 in 6.2 mi SW 21.9 mph - N/A   Mostly Cloudy
10:30 AM 60.8 °F 57.2 °F 88% 29.92 in 6.2 mi SW 20.7 mph - N/A   Mostly Cloudy
11:00 AM 60.8 °F 59.0 °F 94% 29.92 in 6.2 mi WSW 23.0 mph 34.5 mph N/A Rain Light Rain
11:30 AM 62.6 °F 59.0 °F 88% 29.92 in 6.2 mi West 25.3 mph - N/A   Mostly Cloudy
12:00 PM 62.6 °F 59.0 °F 88% 29.95 in 6.2 mi West 27.6 mph - N/A   Mostly Cloudy
12:30 PM 62.6 °F 59.0 °F 88% 29.95 in 6.2 mi West 29.9 mph - N/A   Mostly Cloudy
1:00 PM 62 °F 58 °F 82% 29.96 in 16 mi West 26.8 mph - -   Partly Cloudy
1:00 PM 62.6 °F 57.2 °F 82% 29.95 in 6.2 mi West 27.6 mph - N/A   Mostly Cloudy
1:30 PM 62.6 °F 57.2 °F 82% 29.95 in 6.2 mi West 27.6 mph 39.1 mph N/A   Mostly Cloudy
2:00 PM 62.6 °F 57.2 °F 82% 29.92 in 6.2 mi West 28.8 mph - N/A   Mostly Cloudy
2:30 PM 62.6 °F 59.0 °F 88% 29.92 in 6.2 mi West 26.5 mph - N/A   Overcast
3:00 PM 62.6 °F 59.0 °F 88% 29.92 in 6.2 mi WSW 23.0 mph 35.7 mph N/A   Mostly Cloudy
3:30 PM 62.6 °F 59.0 °F 88% 29.92 in 6.2 mi WSW 23.0 mph - N/A   Mostly Cloudy
4:00 PM 62.6 °F 59.0 °F 88% 29.92 in 6.2 mi WSW 23.0 mph - N/A   Light Drizzle
4:30 PM 60.8 °F 59.0 °F 94% 29.92 in 5.0 mi West 25.3 mph 36.8 mph N/A   Light Drizzle
5:00 PM 60.8 °F 59.0 °F 94% 29.92 in 6.2 mi WSW 25.3 mph - N/A   Light Drizzle
5:30 PM 60.8 °F 57.2 °F 88% 29.92 in 6.2 mi WSW 23.0 mph - N/A   Mostly Cloudy
6:00 PM 60.8 °F 57.2 °F 88% 29.92 in 6.2 mi WSW 23.0 mph - N/A   Mostly Cloudy
6:30 PM 60.8 °F 57.2 °F 88% 29.92 in 6.2 mi WSW 21.9 mph - N/A   Mostly Cloudy
7:00 PM 61 °F 57 °F 83% 29.95 in 19 mi WSW 17.9 mph - - Rain Light Drizzle
7:00 PM 60.8 °F 57.2 °F 88% 29.95 in 6.2 mi WSW 17.3 mph - N/A   Mostly Cloudy
7:30 PM 60.8 °F 57.2 °F 88% 29.95 in 6.2 mi WSW 20.7 mph - N/A   Overcast
8:00 PM 60.8 °F 57.2 °F 88% 29.95 in 6.2 mi WSW 20.7 mph - N/A   Mostly Cloudy
8:30 PM 60.8 °F 57.2 °F 88% 29.92 in 6.2 mi WSW 17.3 mph - N/A   Mostly Cloudy
9:00 PM 60.8 °F 57.2 °F 88% 29.92 in 6.2 mi WSW 25.3 mph - N/A   Light Drizzle
9:30 PM 60.8 °F 57.2 °F 88% 29.92 in 6.2 mi WSW 17.3 mph - N/A   Mostly Cloudy
10:00 PM 60.8 °F 57.2 °F 88% 29.92 in 6.2 mi WSW 21.9 mph 33.4 mph N/A   Mostly Cloudy
10:30 PM 59.0 °F 57.2 °F 94% 29.89 in 6.2 mi WSW 28.8 mph - N/A   Mostly Cloudy
11:00 PM 60.8 °F 55.4 °F 82% 29.89 in 6.2 mi WSW 25.3 mph - N/A   Light Drizzle
11:30 PM 60.8 °F 59.0 °F 94% 29.89 in 6.2 mi WSW 27.6 mph - N/A   Light Drizzle